Home   Weather   Rapid City   Past weeks
Flag for USA

Past Weather in Rapid City, South Dakota, USA — Yesterday and Last 2 Weeks

Now
74 °F

Sunny.


Feels Like: 77 °F
Forecast: 73 / 56 °F
Wind: 21 mph from North

Location: Ellsworth Air Force Base

Current Time: Jun 15, 2019 at 3:07:09 pm

Latest Report: Jun 15, 2019 at 1:56 pm


Visibility: 10 mi

Pressure: 29.90 "Hg (26.71 "Hg at 977m altitude)

Humidity: 43%

Dew Point: 50 °F

Location of Rapid CityLocation

Past Weather in Rapid City — Graph

°F

Rapid City Temperature Yesterday

Maximum temperature yesterday: 76 °F (at 8:56 am)
Minimum temperature yesterday: 54 °F (at 4:56 am)
Average temperature yesterday: 66 °F

High & Low Weather Summary for the Past Weeks

 TemperatureHumidityPressure
High86 °F (Jun 7, 3:56 pm)100% (May 31, 5:38 pm)30.41 "Hg (May 31, 5:38 pm)
Low39 °F (Jun 9, 4:56 am)30% (Jun 9, 5:31 pm)29.59 "Hg (Jun 7, 7:56 pm)
Average63 °F74%29.95 "Hg
* Reported May 31 1:56 pm — Jun 15 1:56 pm, Rapid City. Weather by CustomWeather, © 2019

Note: Actual official high and low records may vary slightly from our data, if they occured in-between our weather recording intervals... More about our weather records

Advertising

Rapid City Weather History for the Previous 24 Hours

Scroll right to see more
 ConditionsComfort  
Time TempWeatherWind HumidityBarometerVisibility
1:56 pm
Sat, Jun 15
74 °FSunny.21 mph43%29.90 "Hg10 mi
12:56 pm73 °FSunny.21 mph47%29.91 "Hg10 mi
11:56 am71 °FSunny.22 mph52%29.90 "Hg10 mi
10:56 am70 °FSunny.23 mph56%29.89 "Hg10 mi
9:56 am68 °FSunny.21 mph66%29.88 "Hg10 mi
8:56 am66 °FSunny.16 mph69%29.88 "Hg10 mi
7:56 am64 °FSunny.22 mph79%29.88 "Hg10 mi
6:56 am60 °FSunny.20 mph87%29.86 "Hg10 mi
5:56 am56 °FSunny.14 mph96%29.86 "Hg10 mi
4:56 am55 °FSunny.12 mph100%29.85 "Hg10 mi
3:56 am58 °FClear.16 mph97%29.80 "Hg10 mi
2:56 am56 °FClear.13 mph100%29.79 "Hg10 mi
1:56 am58 °FClear.12 mph100%29.78 "Hg10 mi
12:56 am56 °FPassing clouds.7 mph100%29.77 "Hg10 mi
11:56 pm
Fri, Jun 14
60 °FPassing clouds.3 mph100%29.78 "Hg10 mi
10:56 pm60 °FThundershowers. Mostly cloudy.14 mph100%29.80 "Hg10 mi
9:56 pm66 °FThunderstorms. Mostly cloudy.13 mph85%29.74 "Hg8 mi
9:23 pm64 °FThundershowers. Mostly cloudy.No wind88%29.72 "Hg10 mi
8:56 pm66 °FPassing clouds.7 mph85%29.70 "Hg10 mi
7:56 pm68 °FPassing clouds.6 mph94%29.69 "Hg10 mi
6:56 pm69 °FSunny.5 mph80%29.69 "Hg10 mi
5:56 pm72 °FScattered clouds.6 mph67%29.71 "Hg10 mi
4:56 pm69 °FScattered clouds.12 mph64%29.72 "Hg10 mi
3:56 pm69 °FBroken clouds.13 mph75%29.72 "Hg10 mi
Weather by CustomWeather, © 2019

See weather overview